Location: Newark
(42.7133°N, 87.7910°W)
Time: 09:09:11
(UTC+00:00)

Tiros 1 - Pass Details

Date: 29 September 2019
Orbit: 630 x 664 km, 48.4° (Epoch: 15 October)

Event Time Altitude Azimuth Distance (km) Brightness Sun altitude
Rises 21:12:07 0° 294° (WNW) 2,963 11.0 24.5°
Reaches altitude 10° 21:14:31 10° 290° (WNW) 2,045 10.4 24.1°
Maximum altitude 21:19:04 50° 215° (SW) 820 8.8 23.4°
Drops below altitude 10° 21:23:33 10° 141° (SE) 2,014 9.6 22.7°
Sets 21:25:54 0° 136° (SE) 2,915 10.3 22.3°
